Regional Weather Roundup
Issued by NWS

Home | Current Version | Previous Version | Graphics & Text | Print | Product List | Glossary On
Versions: 1 2 3 4 5 6 7 8 9 10 11 12 13 14 15 16 17 18 19 20 21 22 23 24 25 26 27 28 29 30 31 32 33 34 35 36 37 38 39 40 41 42 43 44 45 46 47 48 49 50
000
ASUS43 KLMK 060902
RWRKY
KENTUCKY REGIONAL WEATHER ROUNDUP
NATIONAL WEATHER SERVICE LOUISVILLE KY
500 AM EDT MON JUL 06 2015

NOTE "FAIR" INDICATES FEW OR NO CLOUDS BELOW 12,000 FEET
WITH NO SIGNIFICANT WEATHER AND/OR OBSTRUCTIONS TO VISIBILITY.

KYZ001>023-026-027-061>063-070>075-061000-
WESTERN AND SOUTH CENTRAL KENTUCKY

CITY           SKY/WX    TMP DP  RH WIND       PRES   REMARKS
PADUCAH        CLEAR     72  70  93 S5        30.03S FOG
HENDERSON      PTCLDY    68  64  88 CALM      30.03R
OWENSBORO      CLEAR     69  68  97 CALM      30.05R
HOPKINSVILLE   CLEAR     71  70  96 SW3       30.06R
BOWLING GREEN  FOG       68  67  96 CALM      30.07R VSB 1/4
GLASGOW        NOT AVBL
$$

KYZ024-025-028>034-038-045-046-053-061000-
NORTH CENTRAL KENTUCKY

CITY           SKY/WX    TMP DP  RH WIND       PRES   REMARKS
LOUISVILLE/SDF PTCLDY    68  64  87 CALM      30.05R
LOUISVILLE/LOU CLEAR     65  62  90 CALM      30.06R FOG
FORT KNOX      FOG       63  61  94 CALM      30.06R VSB 3/4
$$

KYZ035>037-039>044-047>052-055>060-089>105-061000-
NORTHEAST KENTUCKY

CITY           SKY/WX    TMP DP  RH WIND       PRES   REMARKS
LEXINGTON      CLEAR     63  62  97 S3        30.08R FOG
COVINGTON      CLEAR     62  60  93 W3        30.07R FOG
FRANKFORT      PTCLDY    61  59  93 CALM      30.06R FOG
$$

KYZ054-064>069-076>088-106>120-061000-
SOUTHEAST KENTUCKY

CITY           SKY/WX    TMP DP  RH WIND       PRES   REMARKS
JACKSON        FOG       67  66  97 CALM      30.08R VSB 1/4
LONDON         FOG       67  64  90 CALM      30.09R VSB 1/2
SOMERSET       NOT AVBL
MIDDLESBORO    FOG       64  64 100 CALM      30.10S VSB 1/2
MONTICELLO     FOG       66  66 100 CALM      30.11R VSB<1/4
$$



USA.gov is the U.S. government's official web portal to all federal, state and local government web resources and services.